Regional Weather Roundup
Issued by NWS

Home | Current Version | Previous Version | Graphics & Text | Print | Product List | Glossary On
Versions: 1 2 3 4 5 6 7 8 9 10 11 12 13 14 15 16 17 18 19 20 21 22 23 24 25 26 27 28 29 30 31 32 33 34 35 36 37 38 39 40 41 42 43 44 45 46 47 48 49 50
288
ASUS44 KLIX 010401
RWRLA
LOUISIANA WEATHER ROUNDUP
NATIONAL WEATHER SERVICE NEW ORLEANS LA
1100 PM CDT THU JUL 31 2014

NOTE: "FAIR" INDICATES FEW OR NO CLOUDS BELOW 12,000 FEET WITH NO
      SIGNIFICANT WEATHER AND/OR OBSTRUCTIONS TO VISIBILITY.
      SKY/WX - SKY CONDITION AND SIGNIFICANT WEATHER.
      TMP - AIR TEMPERATURE.    DP   - DEWPOINT TEMPERATURE.
      RH  - RELATIVE HUMIDITY.  PRES - PRESSURE.
      HX  - HEAT INDEX.         WCI  - WIND CHILL INDEX.

*  THESE STATIONS ARE NOT NWS OR FAA STATIONS AND ARE NOT UNDER
   NWS QUALITY CONTROL.

LAZ040-048-061>063-065-066-069-010500-
SOUTHEAST LOUISIANA

CITY           SKY/WX    TMP DP  RH WIND       PRES   REMARKS
N.O. AUDUBON     N/A     81  70  69 MISG        N/A
N.O. INTL ARPT MOCLDY    80  70  71 SE7       30.01R
N.O. LAKEFRONT PTCLDY    81  69  67 SE5       30.01R
N.O. DOWNTOWN* FAIR      84  66  54 S3        30.01R
SLIDELL        PTCLDY    74  69  85 CALM      30.01R
BATON ROUGE    MOCLDY    77  67  71 NE3       30.00R
BOOTHVILLE     PTCLDY    78  67  68 SE5       30.01R
BELLE CHASSE   MOCLDY    76  70  82 CALM      30.01R
BOGALUSA*      FAIR      73  68  83 CALM      30.03R
GALLIANO*      NOT AVBL
NEW ROADS*     FAIR      77  66  68 E6        30.00R
GONZALES*      MOCLDY    76  74  93 CALM      30.00R
HAMMOND*       NOT AVBL
HOUMA*         CLEAR     74  69  83 E3        30.00R
PORT FOURCHON* PTCLDY    82  70  65 E5        30.02R

$$

LAZ041-044-053-054-010500-
SOUTHWEST LOUISIANA

CITY           SKY/WX    TMP DP  RH WIND       PRES   REMARKS
LAKE CHARLES   LGT RAIN  79  77  94 SE6       29.96S
LAFAYETTE      CLOUDY    80  73  79 CALM      29.98S
PATTERSON      MOCLDY    75  73  94 S5        30.04R
SALT POINT       N/A     84  74  71 VRB3      29.99R
NEW IBERIA     CLOUDY    80  73  79 SE3       29.99R
CHENAULT AIRPK CLOUDY    79  75  86 SE7       29.97F

$$

LAZ027-028-010500-
CENTRAL LOUISIANA

CITY           SKY/WX    TMP DP  RH WIND       PRES   REMARKS
FORT POLK      CLOUDY    77  70  79 SE7       29.97S
ALEXANDRIA INT CLOUDY    77  69  76 E7        29.97S
ALEXANDRIA     CLOUDY    76  70  82 NE5       30.00R

$$

LAZ001-002-010500-
NORTHWEST LOUISIANA

CITY           SKY/WX    TMP DP  RH WIND       PRES   REMARKS
SHREVEPORT     LGT RAIN  70  67  90 E8        29.99R FOG
BARKSDALE AFB  LGT RAIN  68  68 100 NE3       30.01R FOG
DTN SHREVEPORT LGT RAIN  69  66  90 E7        30.00R

$$

LAZ014-016-010500-
NORTHEAST LOUISIANA

CITY           SKY/WX    TMP DP  RH WIND       PRES   REMARKS
MONROE         CLOUDY    72  69  90 NE6       30.03R
TALLULAH       CLOUDY    74  68  81 E5        30.02R

$$




USA.gov is the U.S. government's official web portal to all federal, state and local government web resources and services.